{"data":{"norad_id":63857,"intl_designator":"2025-093X","name":"STARLINK-33999","alt_names":[],"object_type":"PAYLOAD","status":"ACTIVE","operator":null,"country":"US","launch_date":"2025-05-07","launch_site_code":"AFETR","launch_vehicle":null,"mission":null,"orbit_class":"UNKNOWN","rcs_meters":null,"size_class":null,"mass_kg":null,"dimensions":null,"purposes":["comms"],"wikipedia_slug":null,"has_3d_model":false,"image_url":null,"decayed_at":null,"tle_current":{"epoch":"2026-05-24T23:53:35.368800Z","epoch_age_seconds":86023,"freshness":"FRESH","line1":"1 63857U 25093X   26144.99554825  .00021481  00000+0  78740-3 0  9996","line2":"2 63857  43.0043   6.8025 0001397 257.7242 102.3453 15.27599775 59644","mean_motion":15.27599775,"eccentricity":0.0001397,"inclination_deg":43.0043,"raan_deg":6.8025,"arg_perigee_deg":257.7242,"mean_anomaly_deg":102.3453,"bstar":0.0007874,"rev_number":5964,"period_min":94.265528416957,"perigee_km":482.03138378882,"apogee_km":483.94838263999,"semimajor_km":6861.1268832144,"source":"CELESTRAK","updated_at":"2026-05-25T13:38:20.150534Z"}}}